Погода в Казыме

Погода в Казыме : погода сейчас, прогноз погоды и архив. Всё, что Вы хотите узнать о погоде в Казыме!

Хотите узнать прогноз погоды в Казыме? Тогда Вам сюда: Погода в Казыме

Поиск расширенной информации на нашем сайте:

Другие новости

Новости СМИ2

Главная страница сайта

Новости сайта

03.07.2017

Напоминаем, что на нашем специализированном сайте Метеоцентр.Азия вы можете получить высокодетализированные автоматические прогнозы погоды по пунктам России, СНГ и мира в авиационном формате (включающие направление и скорость ветра, видимость, явления погоды, количество и форму облачности, нижнюю и верхнюю границу облачности).

Рекомендуем: Александрия витязево официальный сайт: популярные сайты aleksandriya.net.

Погода в Казыме - сегодня

Время (UTC), дата Ветер
(°,м/с) 
Видим.   Явления Облачность Т
(°С)
Тd
(°С)
f(%) Тe
(°С)
Pmin
(гПа)
dP
(гПа)
Po
(мм)
O2
(г/м3)
Тmin Tmax R s Состояние
почвы
21 18.10.18 тихо ()   10 км    10/10 600 м 
[Sc]
-2.4 -6 76 -2  1010.7  -0.5  750  305           
00 19.10.18 070 (В) 10 км    10/10 600 м 
[Sc]
-2.5 -6.9 72 -2  1010.4  -0.3  750  306           
03 19.10.18 100 (В) 10 км    10/10 600 м 
[Sc]
-2.7 -6.8 73 -2  1009.8  -0.6  749  306  -3      равномерный
сухой снег
100% 
06 19.10.18 100 (В) 10 км    10/10 600 м 
[Sc]
-1.6 -6.8 68 -3  1009.4  -0.3  749  304           
09 19.10.18 100 (В) 10 км  {ливн. осадки}  10/10 300 м кучево-дожд. 
[Cb cap]
-1.1 -4.7 76 -1  1008.9  -0.5  749  303           
12 19.10.18 100 (В) 10 км  {ливн. осадки}  10/10 300 м кучево-дожд. 
[Cb cap]
-1.7 -3.8 86 -1  1008.6  -0.3  748  304           
18 19.10.18 130 (ЮВ) 10 км    10/10 300 м кучево-дожд. 
[Cb cap]
-2 -3.8 87 -1  1007.3  -1.1  747  304           
21 19.10.18 130 (ЮВ) 10 км    10/10 600 м 
[Sc]
-2.1 -3.9 87 -3  1006.3  -1  747  304           
00 20.10.18 110 (В) 10 км    10/10 600 м 
[Sc]
-2.5 -3.8 91 -5  1004.4  -2  745  303           
03 20.10.18 100 (В) н/о    н/о 
-2.8 -3.7 94 -5  1002.8  -1.4  744  303  -2.9         
06 20.10.18 090 (В) н/о    н/о 
-2.1 -2.9 94 -5  1001.2  -1.5  743  302           
09 20.10.18 080 (В) 1000 м  снег  10/10 300 м 
[Ns]
-1.6 -2.1 96 -4  1000.6  -0.7  742  301           
12 20.10.18 070 (В) 4000 м  слаб. снег  10/10 300 м 
[Ns]
-1.1 -1.8 95 -4  1000.3  -0.3  742  300           
15 20.10.18 060 (СВ) 4000 м  слаб. снег  10/10 300 м 
[Ns]
-1.2 -1.9 95 -4  1000.5  0.2  742  301    -1.1     
18 20.10.18 050 (СВ) 4000 м  слаб. снег  10/10 300 м 
[Ns]
-2.2 -3.1 94 -6  1001.1  0.5  743  302           
21 20.10.18 040 (СВ) 4000 м  слаб. снег  10/10 300 м 
[Ns]
-3.4 -4.8 90 -6  1001.9  743  304           
00 21.10.18 030 (СВ) 4000 м  слаб. снег  10/10 300 м 
[Ns]
-4.2 -5.8 89 -7  1002.9  0.8  744  305           
03 21.10.18 030 (СВ) 4000 м  слаб. снег  10/6 300 м средняя 
[Frnb|As op]
-5.2 -6.6 90 -7  1004.2  1.2  745  307  -5.2    18  равномерный
сухой снег
100% 
09 21.10.18 020 (С) 10 км  позёмок{снег}  10/6 300 м средняя 
[Sc|As op]
-3.2 -5.3 85 -4  1007.5  1.9  747  305           
12 21.10.18 020 (С) 10 км  {снег}  10/10 300 м 
[Sc]
-3.2 -5.3 85 -4  1009.1  1.6  749  306           
15 21.10.18 360 (С) 4000 м  слаб. ливневой снег  10/10 300 м кучево-дожд. 
[Cb cap]
-3 -5.4 83 -4  1010.2  1.1  749  306    -3     
18 21.10.18 340 (С) 10 км  {ливн. осадки}  10/10 300 м кучево-дожд. 
[Cb cap]
-3.9 -6.5 82 -6  1011.3  1.1  750  307           
21 21.10.18 360 (С) 10 км    10/10 300 м 
[Sc]
-4.6 -7 83 -6  1012.5  1.1  751  309           
00 22.10.18 310 (СЗ) 10 км    ясно 
-6.1 -8 86 -9  1013.2  0.7  752  311           
03 22.10.18 310 (СЗ) 10 км    4/4 600 м 
[Sc]
-9.2 -10.3 92 -12  1013.9  0.5  752  315  -9.2    0.0  17  равномерный
сухой снег
100% 
Время (UTC), дата Ветер
(°,м/с) 
Видим.   Явления Облачность Т
(°С)
Тd
(°С)
f(%) Тe
(°С)
Pmin
(гПа)
dP
(гПа)
Po
(мм)
O2
(г/м3)
Тmin Tmax R s Состояние
почвы

Для получения пояснительной информации подведите курсор к названию столбца.

ПОГОДА в Казыме - архив

Всё, что Вы хотите узнать о погоде в Казыме - удобно и подробно!

Выберите нужную дату (начиная с 1 января 2015* года) и нажмите кнопку "Найти".
Будут отображены архивные сводки погоды по пункту Казым, начиная с указанной даты.


Отображать данные в формате CSV (для использования в таблицах Excel)


Внимание! Наш архив погоды предназначен исключительно для личного некоммерческого использования в познавательных целях. Если Вам необходимы официальные справки о состоянии погоды (для производственных, юридических, коммерческих и т.п. целей), обращайтесь в органы Росгидромета.

*Примечание: данная дата относится к архиву по метеостанциям СССР (Россия, СНГ, Балтия).
Архив по метеостанциям Зарубежной Европы и Азии (кроме Китая) хранится 10 дней, по другим регионам земного шара (Китай, Африка, Америка, Австралия, Океания) - 1 день.

Казым - район местоположения метеостанции


Название, широта, долгота, высота метеостанции:
Казым 63.7°ш. 67.2°д. 27 м над ур. моря [Российская Федерация]

Дополнительная информация

В oтличие oт бoльшинства пoгoдных сайтoв мы публикуем пoдрoбную метеoинфoрмацию в детальнoм прoфессиoнальнoм фoрмате.

Характеристики температуры и влажнoсти вoздуха измеряются на высoте 2 м в тени вдали oт зданий и деревьев.
Скoрoсть ветра измеряется на высoте 10 м (на урoвне рoста челoвека скoрoсть ветра ниже в 1.5-2 раза). Если метеoстанция нахoдится в гoрoде или в лесу, тo скoрoсть ветра занижена на 2-4 м/с пo сравнению с oткрытым местoм. Скoрoсть ветра над акватoриями крупных рек и oзёр, а также на вершинах хoлмoв на 2-5 м/с выше, чем в oбычных услoвиях.
Атмoсфернoе давление в разных тoчках местнoсти мoжет значительнo oтличаться oт давления на метеoстанции, в зависимoсти oт услoвий рельефа (при пoдъёме на 10 м давление пoнижается примернo на 1 мм рт.ст.).